Weather in Belebelka

Russia / Novgorod Oblast     57°34′07″N   30°55′16″E
temp.,
°C
wind,
m/s
gust,
m/s
humid.,
%
clouds,
%
prec.,
mm/h
press.,
hPa
HPBL,
m
7 march, sun
sun700:00−2sw71785100 1.0 10011305
03:00−1sw81685100 1.2 9961111
06:00−1wnw81496100 1.8 9931136
09:00−3wnw51449100 2.3 9941959
12:00−3w696027 0.1 9931483
15:00−3wnw5106564 1.8 9931715
18:00−4wnw51167100 0.3 9941421
21:00−7wnw389293 0.4 995386
8 march, mon
mon800:00−8wnw39860 0.0 996330
03:00−9nw410820 0.0 998516
06:00−8nnw5108887 0.1 1001970
09:00−9nnw5108494 0.2 1004786
12:00−8nnw5876100 0.1 1007890
15:00−7nnw5773100 0.2 1010992
18:00−8nnw4780100 0.1 1011933
21:00−10n388899 0.1 1015599
9 march, tue
tue900:00−12n279182 0.0 1016422
03:00−13nnw259469 0.0 1017278
06:00−14nnw149662 0.0 1019191
09:00−13nnw238856 0.0 1020303
12:00−10nnw236890 0.0 1020708
15:00−7nw125995 0.0 1020876
18:00−8ene006799 0.0 1019514
21:00−9ese2577100 0.0 1020392
10 march, wed
wed1000:00−10ese4892100 0.9 1020430
03:00−11ese51093100 3.4 1021450
06:00−11ese51092100 1.6 1021463
09:00−11e4989100 1.9 1022469
12:00−8e597696 0.1 1022662
15:00−6ese586795 0.1 1022965
18:00−8ese497397 0.0 1022738
21:00−11ese4117898 0.0 1022528
11 march, thu
thu1100:00−11ese4993100 0.4 1022460
03:00−11ese3892100 0.7 1021431
06:00−11ese379399 0.4 1019356
09:00−10se369197 0.6 1018274
12:00−4sse368796 0.1 1016510
15:000s588198 0.4 1013992
18:00−1s41178100 0.1 1010824
21:00−3sse71579100 0.1 1007892